Kangerlussuup Sermersua

KL  EN  DA
ASIAQ
Weather Now GREENLAND SURVEY
Updated [WGT/WGST] Temperature [°C] Wind [m/s] Air pressure [hPa] Relative humidity [%] Precipitation [mm]
Present Wind chill Speed Max
24.09 02:00-10,30,06,9 ⇖n/a93578n/a
24.09 01:00-10,50,05,5 ⇖n/a93679n/a
24.09 00:00-10,90,05,9 ⇖n/a93783n/a
23.09 23:00-11,10,06,3 ⇖n/a93885n/a
23.09 22:00-11,30,07,9 ⇖n/a93987n/a
23.09 21:00-11,30,08,1 ⇖n/a94089n/a
23.09 20:00-10,80,08,4 ⇖n/a94090n/a
23.09 19:00-9,90,08,2 ⇖n/a94189n/a
23.09 18:00-9,70,05,0 ⇖n/a94291n/a
23.09 17:00-9,30,05,1 ⇖n/a94292n/a
23.09 16:00-8,80,04,5 ⇖n/a94293n/a
23.09 15:00-8,00,05,1 ⇖n/a94292n/a
23.09 14:00-7,80,04,6 ⇖n/a94397n/a
23.09 13:00-7,80,04,4 ⇖n/a943100n/a
23.09 12:00-8,40,03,6 ⇐n/a943100n/a
23.09 11:00-8,90,03,1 ⇐n/a943100n/a
23.09 10:00-9,40,02,8 ⇐n/a943100n/a
23.09 09:00-7,90,03,1 ⇐n/a942100n/a
23.09 08:00-7,80,03,6 ⇐n/a942100n/a
23.09 07:00-7,30,02,4 ⇐n/a942100n/a
23.09 06:00-6,90,01,5 ⇐n/a941100n/a
23.09 05:00-6,90,01,7 ⇐n/a941100n/a
23.09 04:00-6,40,01,9 ⇙n/a941100n/a
23.09 03:00-5,50,01,6 ⇖n/a940100n/a
23.09 02:00-5,30,01,4 ⇐n/a940100n/a
Position: (67.0955,-49.9513)

[Back]